Regional Weather Roundup
Issued by NWS Northern Indiana

Home | Current Version | Previous Version | Graphics & Text | Print | Product List | Glossary On
Versions: 1 2 3 4 5 6 7 8 9 10 11 12 13 14 15 16 17 18 19 20 21 22 23 24 25 26 27 28 29 30 31 32 33 34 35 36 37 38 39 40 41 42 43 44 45 46 47 48 49 50
000
ASUS43 KIWX 010410
RWRIWX

KIWX WEATHER ROUNDUP
NATIONAL WEATHER SERVICE NORTHERN INDIANA
1100 PM EST SAT JAN 31 2015

NOTE: "FAIR" INDICATES FEW OR NO CLOUDS BELOW 12,000 FEET WITH NO
SIGNIFICANT WEATHER AND/OR OBSTRUCTIONS TO VISIBILITY.

* THESE STATIONS ARE NOT UNDER NWS QUALITY CONTROL. THEY ALSO MAY NOT
  REPORT WEATHER SUCH AS PRECIPITATION OR FOG.

INZ001>027-010500-
NORTHERN INDIANA

CITY           SKY/WX    TMP DP  RH WIND       PRES   REMARKS
GARY*          LGT SNOW  34  31  89 CALM      30.16S VSB 3/4
VALPARAISO     LGT SNOW  32  31  96 S5        30.16S VSB 1   WCI  27
MICHIGAN CITY* LGT SNOW  32  32 100 CALM      30.17S VSB 1
LAPORTE*       LGT SNOW  34  34 100 CALM      30.16S
KNOX*          CLOUDY    32  28  86 S5        30.16S VSB 3/4 WCI  27
SOUTH BEND     LGT SNOW  33  32  96 SW5       30.16S FOG     WCI  29
GOSHEN         LGT SNOW  33  31  92 S5        30.15F VSB 1   WCI  29
MONTICELLO*    LGT SNOW  32  32  99 SW7       30.18S WCI  26
LOGANSPORT*    LGT SNOW  32  32 100 SW12      30.19S WCI  23
ROCHESTER*     LGT SNOW  34  34 100 SW6       30.17S WCI  29
WARSAW*        LGT SNOW  32  32 100 CALM      30.16F
ANGOLA*        CLOUDY    32  28  86 CALM      30.15S
FORT WAYNE     LGT SNOW  33  31  92 SW6       30.18S FOG     WCI  28
HUNTINGTON*    LGT SNOW  32  29  88 SW5       30.17S WCI  27
PERU/GRISSOM   LGT SNOW  32  32 100 SW13      30.17S FOG     WCI  22
MARION*        LGT SNOW  32  32  99 SW13      30.19S WCI  22

$$
INZ028>050-010500-
CENTRAL INDIANA

CITY           SKY/WX    TMP DP  RH WIND       PRES   REMARKS
LAFAYETTE      MIX PCPN  32  31  96 S5        30.19F FOG     WCI  27
KOKOMO*        CLOUDY    34  28  80 SW12      30.19S WCI  25
MUNCIE*        LGT SNOW  33  30  88 SW8       30.19S FOG     WCI  26
INDIANAPOLIS   LGT SNOW  30  30 100 S6        30.21S FOG     WCI  24

$$
MIZ043>046-050>051-056>058-064>065-071>073-077>080-010500-
SOUTHWEST LOWER MICHIGAN

CITY           SKY/WX    TMP DP  RH WIND       PRES   REMARKS
BATTLE CREEK   CLOUDY    32  24  72 CALM      30.15F
BENTON HARBOR  LGT SNOW  30  28  92 CALM      30.16F FOG
COLDWATER*     CLOUDY    31  27  86 CALM      30.15F
HILLSDALE*     CLOUDY    31  25  77 CALM      30.14S
HOLLAND        CLOUDY    31  23  72 N7        30.17F WCI  24
GRAND RAPIDS   FLURRIES  30  23  75 N6        30.17F WCI  24
KALAMAZOO      LGT SNOW  30  26  85 N3        30.16F FOG
STURGIS*       LGT SNOW  30  28  93 CALM      30.14F
THREE RIVERS*  LGT SNOW  31  27  82 CALM      30.16S

$$
OHZ001>008-015>018-024>025-010500-
NORTHWEST OHIO

CITY           SKY/WX    TMP DP  RH WIND       PRES   REMARKS
DEFIANCE       LGT SNOW  34  28  79 CALM      30.18F
FINDLAY        CLOUDY    34  26  72 SW6       30.17F WCI  29
TOLEDO EXPRESS CLOUDY    29  26  89 CALM      30.17F
TOLEDO METCALF CLOUDY    31  25  78 SW6       30.19S WCI  25
LIMA           CLOUDY    35  25  66 SW7       30.17F WCI  29

$$
AND FOR LAKE MICHIGAN COASTAL AND OPEN LAKE BUOY OBSERVATIONS

STATION/POSITION TEMP    WIND        PRES    VSBY  WAVE
                 AIR SEA DIR/SP/G                  HT/PER
                 (F)     (DEG/KT/KT) (MB)    (MI)  (FT/S)
CALUMET HARBOR    32      50/  6/  6   N/A
MICHIGAN CITY     31     350/  4/  5   N/A
SAINT JOSEPH      31      CALM  /  2 1022.4S

$$
&&


USA.gov is the U.S. government's official web portal to all federal, state and local government web resources and services.